Home > Weather > Port Moresby > Past weeks

Flag for Papua New Guinea Weather for the Past 2 Weeks in Port Moresby, Papua New Guinea

Now
84 °F

Overcast.


Feels Like: 92 °F
Forecast: 77 / 92 °F
Wind: No wind

Location: Moresby

Current Time: Feb 8, 2016 at 12:11:34 AM

Latest Report: Feb 7, 2016 at 10:00 PM


Visibility: N/A

Pressure: 29.80 "Hg

Humidity: 74%

Dew point: 75 °F

Location of Port MoresbyLocation

Historic Weather in Port Moresby — Graph

°F

Port Moresby Temperature Yesterday

Maximum temperature yesterday: 91 °F (at 1:00 PM)
Minimum temperature yesterday: 79 °F (at 5:00 AM)
Average temperature yesterday: 87 °F

High & Low Weather Summary for the Past Weeks

 TemperatureHumidityPressure
High95 °F (Feb 4, 1:00 PM)94% (Jan 24, 7:00 AM)29.86 "Hg (Jan 24, 7:00 AM)
Low64 °F (Feb 5, 9:00 AM)44% (Jan 24, 12:00 PM)29.62 "Hg (Feb 5, 4:00 PM)
Average84 °F73%29.77 "Hg
* Reported Jan 23 10:00 PM — Feb 7 10:00 PM, Port Moresby, Weather by CustomWeather, © 2016

Note: Actual official high and low records may vary slightly from our data, if they occured in-between our weather recording intervals... More about our weather records

Advertising

Port Moresby Weather History for the Previous 24 Hours

 ConditionsComfort  
Time TempWeatherWind HumidityBarometerVisibility
10:00 PM
Sun, Feb 7
84 °FOvercast.No wind74%29.80 "HgN/A
9:00 PM84 °FOvercast.No wind74%29.77 "HgN/A
8:00 PM84 °FOvercast.No wind74%29.77 "HgN/A
7:00 PM86 °FMostly cloudy.2 mph70%29.74 "HgN/A
6:00 PM88 °FMore clouds than sun.6 mph62%29.71 "HgN/A
5:00 PM90 °FBroken clouds.14 mph59%29.68 "HgN/A
4:00 PM90 °FPartly sunny.14 mph59%29.68 "HgN/A
3:00 PM91 °FBroken clouds.14 mph52%29.68 "HgN/A
2:00 PM91 °FPartly sunny.14 mph56%29.71 "HgN/A
1:00 PM91 °FBroken clouds.14 mph63%29.71 "HgN/A
12:00 PM90 °FPartly sunny.9 mph67%29.74 "HgN/A
11:00 AM90 °FBroken clouds.9 mph63%29.77 "HgN/A
10:00 AM86 °FBroken clouds.6 mph75%29.80 "HgN/A
9:00 AM84 °FBroken clouds.7 mph74%29.83 "HgN/A
8:00 AM82 °FMostly cloudy.5 mph70%29.83 "HgN/A
5:00 AM79 °FPartly cloudy.6 mph94%29.77 "HgN/A
Weather by CustomWeather, © 2016

See weather overviewHow to use our weather pages